Regional Weather Roundup
Issued by NWS Wilmington, NC

Home | Current Version | Previous Version | Text Only | Print | Product List | Glossary On
Versions: 1 2 3 4 5 6 7 8 9 10 11 12 13 14 15 16 17 18 19 20 21 22 23 24 25 26 27 28 29 30 31 32 33 34 35 36 37 38 39 40 41 42 43 44 45 46 47 48 49 50
000
ASUS42 KILM 282310
RWRILM
RWRILM
REGIONAL HOURLY WEATHER ROUNDUP
NATIONAL WEATHER SERVICE WILMINGTON NC
700 PM EDT THU AUG 28 2014

NOTE: "FAIR" INDICATES FEW OR NO CLOUDS BELOW 12,000 FEET WITH NO
SIGNIFICANT WEATHER AND/OR OBSTRUCTIONS TO VISIBILITY.

...............WFO WILMINGTON COUNTY WARNING AREA...............

......COASTAL NC AND SC COUNTIES......

CITY           SKY/WX    TMP DP  RH WIND       PRES   REMARKS
WILMINGTON     CLEAR     86  67  52 SW10      29.97R
SOUTHPORT      CLEAR     82  68  62 SW6       29.99R
N MYRTLE BEACH CLEAR     83  68  60 SW12      29.99R
MYRTLE BEACH   CLEAR     84  66  54 S14       29.99R

......INLAND NC AND SC COUNTIES.......

CITY           SKY/WX    TMP DP  RH WIND       PRES   REMARKS
LUMBERTON      CLEAR     87  67  51 S6        29.95S HX  90
ELIZABETHTOWN  CLEAR     89  67  47 S5        29.96S HX  91
WHITEVILLE     CLEAR     87  68  53 CALM      29.97S HX  90
FLORENCE       CLEAR     90  63  40 S7        29.96S HX  91
DARLINGTON     CLEAR     91  63  38 S6        29.97R HX  92

....................REST OF NORTH CAROLINA......................

.........EASTERN NC.........

CITY           SKY/WX    TMP DP  RH WIND       PRES   REMARKS
CAPE HATTERAS  CLEAR     80  71  74 SW8       29.97R
JACKSONVILLE   CLEAR     90  70  51 SW3       29.96S HX  95
MOREHEAD CITY  CLEAR     83  71  67 SW8       29.97S
KENANSVILLE    CLEAR     85  73  67 CALM      29.97R HX  92
NEW BERN       MOCLDY    86  71  60 S7        29.97R HX  91
ELIZABETH CITY PTCLDY    80  72  76 E6        29.96S

.........CENTRAL NC.........

CITY           SKY/WX    TMP DP  RH WIND       PRES   REMARKS
RALEIGH DURHAM PTCLDY    88  70  55 CALM      29.97R HX  93
ROCKY MOUNT    CLEAR     85  77  77 CALM      29.96R HX  95
ROANOKE RAPIDS NOT AVBL
FAYETTEVILLE   CLEAR     89  72  56 SE6       29.95R HX  96
HOFFMAN        CLEAR     92  65  40 NW5       29.97S HX  94

.........WESTERN NC.........

CITY           SKY/WX    TMP DP  RH WIND       PRES   REMARKS
CHARLOTTE      MOSUNNY   88  66  48 W3        29.99S HX  90
GREENSBORO     PTCLDY    88  67  49 CALM      29.98S HX  91
HICKORY        NOT AVBL
BOONE          NOT AVBL
ASHEVILLE      NOT AVBL

.....................REST OF SOUTH CAROLINA.....................

.........EASTERN SC.........

CITY           SKY/WX    TMP DP  RH WIND       PRES   REMARKS
CHARLESTON     PTCLDY    85  65  51 S9        29.99S
BEAUFORT MCAS  SUNNY     85  65  51 SW6       29.99S
HILTON HEAD    NOT AVBL

.........CENTRAL SC.........

CITY           SKY/WX    TMP DP  RH WIND       PRES   REMARKS
COLUMBIA       MOSUNNY   93  56  28 E8        29.95S HX  91
ORANGEBURG     SUNNY     89  56  32 S7        29.97S
SUMTER SHAW    SUNNY     92  59  32 SE7       29.96R HX  92

.........WESTERN SC.........

CITY           SKY/WX    TMP DP  RH WIND       PRES   REMARKS
GREENVILLE     NOT AVBL
ROCK HILL      SUNNY     89  66  46 CALM      29.99S HX  91
ANDERSON       SUNNY     90  60  36 E3        29.98F
CLEMSON        NOT AVBL
GREENWOOD      SUNNY     94  53  25 CALM      29.98S HX  91


...................COASTAL AND OFFSHORE REPORTS..................

................LOCAL PIERS AND NC RESERVE................


STATION/POSITION TIME  SKY/WX   TEMP    WIND        PRES    VSBY
                                AIR SEA DIR/SP/G
                 (UTC)          (F)     (DEG/KT/KT) (MB)    (MI)
JOHNY MRCER PIER 2300            84 83  190/ 14/ 15 1014.3R
NC RESRV MASNBRO 2200            88     220/  6     1014.0S
OCEAN CREST PIER 2300            83 82  190/ 13/ 14 1014.3R
SPRINGMAID  PIER 2300            82 82  190/ 15/ 18 1015.4S


................COASTAL AND OFFSHORE BUOYS................


STATION/POSITION TIME  SKY/WX   TEMP    WIND        PRES    VSBY
                                AIR SEA DIR/SP/G
                 (UTC)          (F)     (DEG/KT/KT) (MB)    (MI)
DIMNDSHOAL 41025 2300            82     230/ 12/ 14 1014.6R
WVE H/P(F/S)=  5/10 WND WVE H/P(F/S)=  2/ 4 SWL H/P/D(F/S/D)=  5/130/10

CAPE LOOKOUT     2200            82     230/  7/  9 1014.7R
ONSLOW BAY 41036 2300            82 81  230/ 12/ 14 1015.3S
WVE H/P(F/S)=  4/10 WND WVE H/P(F/S)=  2/ 4 SWL H/P/D(F/S/D)=  3/130/10

5 WRITEBCH 41038 2300            79 81  220/ 14/ 16   N/A
MASONBORO  41110 2300               81                N/A
WVE H/P(F/S)=  3/ 9 WND WVE H/P(F/S)=  3/ 9 SWL H/P/D(F/S/D)=  2/130/11

WILM HARBR 41108 2300               83                N/A
WVE H/P(F/S)=  3/10 WND WVE H/P(F/S)=  3/10

27WRITEBCH 41037 2200            78 81  240/ 12/ 14 1015.0R
FRYING PAN 41013 NOT AVBL
SUNST NRSH 41024 2200            83     220/ 12/ 14 1015.0R
CAPRS NRSH 41029 2200            83     220/ 10/ 12   N/A
EDISTO     41004 2300            81 84  220/  6/  8 1015.7F
WVE H/P(F/S)=  4/10 SWL H/P/D(F/S/D)=  5/10



..........OFFSHORE BUOYS BEYOND 100 NM OFFSHORE...........
.....IN A TRIANGLE---HAT TO BERMUDA TO BAHAMAS TO HAT.....


STATION/POSITION TIME  SKY/WX   TEMP    WIND        PRES    VSBY
                                AIR SEA DIR/SP/G
                 (UTC)          (F)     (DEG/KT/KT) (MB)    (MI)
150E HAT   41001 NOT AVBL
W BERMUDA  41048 2212            80 79  270/ 12/ 14 1016.0R
WVE H/P(F/S)=  8/ 8 WND WVE H/P(F/S)=  3/ 5 SWL H/P/D(F/S/D)=  7/280/ 8

ATLANTIC S 41049 2153            84 86  190/  2/  2 1019.2R
WVE H/P(F/S)=  5/ 7 WND WVE H/P(F/S)=  2/ 3 SWL H/P/D(F/S/D)=  5/200/ 7

E BAHAMAS  41046 2217            84 85   90/ 10/ 14 1017.4R
WVE H/P(F/S)=  5/ 8 WND WVE H/P(F/S)=  2/ 4 SWL H/P/D(F/S/D)=  5/120/ 8

NE BAHAMAS 41047 2230            83 84  210/  8/  8 1017.9R
WVE H/P(F/S)=  5/ 8 WND WVE H/P(F/S)=  2/ 3 SWL H/P/D(F/S/D)=  5/ 60/ 8

120E CANVRL41010 2300            83 85   80/  6/  8 1015.6F
WVE H/P(F/S)=  6/10 SWL H/P/D(F/S/D)=  5/ 40/10


END


USA.gov is the U.S. government's official web portal to all federal, state and local government web resources and services.